Location: Unspecified
(0.0000°N, 0.0000°E)
Time: 05:31:32
(UTC+00:00)

Vanguard 1 Rocket - Visible Passes

Search period start: 23 August 2014 00:00
Search period end: 02 September 2014 00:00
Orbit: 651 x 4230 km, 34.3° (Epoch: 19 August)

Date Brightness Start Highest point End Pass type
(mag) Time Alt. Az. Time Alt. Az. Time Alt. Az.
23 Aug 11.5 00:31:00 10° NW 00:34:55 17° NW 00:34:55 17° NW visible
23 Aug 11.7 18:05:11 10° NW 18:20:15 22° N 18:38:14 10° NE visible
23 Aug 11.1 20:42:01 10° NW 21:02:38 28° NNE 21:10:14 24° NE visible
23 Aug 11.0 23:15:39 10° NW 23:27:29 33° NNW 23:27:29 33° NNW visible
24 Aug 11.5 19:26:40 10° NW 19:44:48 23° N 20:02:28 10° ENE visible
24 Aug 10.8 22:00:37 10° NW 22:20:06 40° N 22:20:06 40° N visible
25 Aug 11.6 00:34:33 10° NW 00:37:22 15° NW 00:37:22 15° NW visible
25 Aug 11.7 18:11:19 10° NW 18:26:27 21° N 18:43:57 10° NE visible
25 Aug 10.9 20:45:52 10° NW 21:08:00 33° NNE 21:12:45 31° NE visible
25 Aug 11.1 23:18:54 10° NW 23:30:01 33° NW 23:30:01 33° NW visible
26 Aug 11.3 19:31:19 10° NNW 19:50:42 26° NNE 20:05:27 15° ENE visible
26 Aug 10.7 22:03:53 10° NW 22:22:43 45° N 22:22:43 45° N visible
27 Aug 11.7 00:38:21 10° WNW 00:40:00 13° WNW 00:40:00 13° WNW visible
27 Aug 11.6 18:16:54 10° NW 18:32:38 21° N 18:50:22 10° NE visible
27 Aug 10.8 20:49:26 10° NW 21:12:59 39° NNE 21:15:28 38° NE visible
27 Aug 11.1 23:22:18 10° NW 23:32:44 32° NW 23:32:44 32° NW visible
28 Aug 11.1 19:35:27 10° NNW 19:56:12 30° NNE 20:08:15 21° ENE visible
28 Aug 10.7 22:07:10 10° NW 22:25:32 49° NNW 22:25:32 49° NNW visible
29 Aug 11.8 00:42:31 10° WNW 00:42:49 11° WNW 00:42:49 11° WNW visible
29 Aug 11.5 18:21:49 10° NNW 18:38:37 23° NNE 18:57:10 10° ENE visible
29 Aug 10.6 20:52:50 10° NW 21:17:36 47° NNE 21:18:23 47° NE visible
29 Aug 11.2 23:25:55 10° NW 23:35:40 30° WNW 23:35:40 30° WNW visible
30 Aug 10.9 19:39:13 10° NNW 20:01:18 35° NNE 20:11:17 28° ENE visible
30 Aug 10.7 22:10:32 10° NW 22:28:35 52° NNW 22:28:35 52° NNW visible
31 Aug 11.4 18:26:10 10° NNW 18:44:15 27° NNE 19:03:56 10° ENE visible
31 Aug 10.5 20:56:12 10° NW 21:21:33 56° NNE 21:21:33 56° NNE visible
31 Aug 11.3 23:29:49 10° WNW 23:38:51 28° WNW 23:38:51 28° WNW visible
01 Sep 10.8 19:42:47 10° NW 20:05:59 42° NNE 20:14:35 35° ENE visible
01 Sep 10.7 22:14:03 10° NW 22:31:54 53° NW 22:31:54 53° NW visible
